[[{"header":{"parameterUnit":"m.s-1","parameterCategory":2,"la1":30.2991,"la2":30.254,"lo1":-89.0895,"lo2":-89.0444,"dy":0.0017,"dx":0.0017,"nx":28,"ny":28,"refTime":"2025-04-13T21:00:00:Z","depth":"0","parameterNumber":2,"parameterNumberName":"U-component_of_CURRENTS"},"data":[0,0,0,0,0,0,0,0,0,0,0,0,0,0,0,0,0,0,0,0,0,0,0,0,0,0,0,0,0,0,0,0,0,0,0,0,0,0,0,0,0,0,0,0,0,0,0,0,0,0,0,0,0,0,0,0,0,0,0.2243,0.2246,0,0.2402,0.2403,0.2404,0.2367,0.2365,0.2363,0.2361,0.24,0.2403,0.2406,0,0,0,0,0,0,0,0,0,0,0,0,0,0.1891,0.1896,0.2243,0.2246,0.2249,0.2402,0.2403,0.2404,0.2367,0.2365,0.2362,0.236,0.24,0.2403,0.2406,0,0,0,0,0,0,0,0,0,0,0,0,0,0.2035,0.1898,0.2242,0.2258,0.2262,0.2402,0.2403,0.2404,0.2368,0.2365,0.2362,0.2359,0.2398,0.2403,0.2407,0.2491,0,0,0.242,0.2422,0,0,0,0,0,0,0,0,0.2026,0.2046,0.2253,0.2257,0.2262,0.2372,0.2294,0.2431,0.2368,0.2315,0.2361,0.2358,0.239,0.2395,0.2416,0.2493,0.2494,0.242,0.2423,0.2425,0.2426,0,0,0,0,0,0,0,0.2016,0.2039,0.2293,0.2257,0.2262,0.2252,0.2268,0.2319,0.2355,0.2319,0.232,0.2358,0.2389,0.2412,0.2416,0.2495,0.242,0.2424,0.2426,0.2428,0.2487,0.2486,0,0,0,0,0,0,0.2027,0.2031,0.2289,0.23,0.2148,0.2262,0.2279,0.233,0.2357,0.2363,0.236,0.2356,0.2406,0.2411,0.2417,0.2421,0.2425,0.2429,0.2431,0.2488,0.2487,0.2486,0,0,0,0,0,0,0.2019,0.2049,0.2283,0.2176,0.2207,0.2273,0.2329,0.2335,0.2348,0.2392,0.2392,0.2367,0.2404,0.2411,0.2431,0.2426,0.243,0.2434,0.2489,0.2488,0.2486,0.2492,0,0,0,0,0,0,0.2008,0.2045,0.2068,0.2178,0.2214,0.2363,0.2333,0.234,0.2383,0.2377,0.2399,0.24,0.2402,0.2424,0.2435,0.2432,0.2438,0.2491,0.2489,0.2487,0.2493,0.2491,0.2489,0,0,0,0,0,0.1995,0.2049,0.2068,0.2099,0.225,0.2366,0.2382,0.2409,0.2386,0.2404,0.2393,0.2399,0.2418,0.2428,0.2441,0.2439,0.2491,0.2489,0.2487,0.2494,0.2491,0.2489,0,0,0,0,0,0,0.1917,0.2055,0.2077,0.2172,0.2261,0.2364,0.2409,0.2416,0.2428,0.2419,0.2414,0.2416,0.2427,0.2433,0.2444,0.2442,0.2446,0.2447,0.2447,0.2445,0.2443,0.2439,0.2441,0,0,0,0,0,0.1916,0.198,0.2112,0.2184,0.2246,0.2323,0.2369,0.2395,0.2438,0.244,0.2439,0.2433,0.2435,0.2438,0.2451,0.2477,0.2548,0.2471,0.2469,0.2468,0.2469,0.2579,0.2589,0.2479,0.2479,0.2479,0,0,0.1909,0.1993,0.203,0.217,0.2252,0.2315,0.2341,0.2436,0.2429,0.2448,0.2425,0.2445,0.2441,0.2447,0.2451,0.2449,0.2541,0.2465,0.2464,0.2466,0.2578,0.2589,0.26,0.2477,0.2477,0.2478,0,0,0.1927,0.2014,0.2071,0.2148,0.228,0.2327,0.2352,0.2451,0.2438,0.2459,0.244,0.2452,0.2465,0.2451,0.2446,0.2447,0.2533,0.2444,0.2434,0.2541,0.2553,0.2563,0.2701,0.2724,0.2436,0.2436,0.2436,0,0.1908,0.2004,0.2104,0.2176,0.2238,0.2324,0.2385,0.2393,0.2451,0.2461,0.2443,0.2471,0.2459,0.2466,0.2434,0.2445,0.2541,0.2449,0.2545,0.2556,0.2567,0.2706,0.2731,0.2436,0.2436,0.2436,0.2436,0,0.1961,0.2036,0.2096,0.2193,0.2255,0.2348,0.2397,0.2414,0.2416,0.2436,0.246,0.246,0.2487,0.2463,0.244,0.2493,0.2552,0.2543,0.2563,0.258,0.2724,0.275,0.2436,0.2436,0.2436,0.2436,0,0,0.1949,0.2099,0.2116,0.2175,0.2283,0.2359,0.2348,0.2409,0.2438,0.2442,0.2499,0.2441,0.2492,0.2486,0.2482,0.2528,0.2671,0.2559,0.2564,0.2718,0.2963,0.2963,0.2993,0.2704,0.2708,0.2711,0.3047,0,0.1972,0.2095,0.2139,0.2233,0.2329,0.2376,0.2369,0.2411,0.2448,0.2517,0.2519,0.2581,0.2484,0.2544,0.2564,0.2662,0.2736,0.2584,0.2903,0.2913,0.2929,0.302,0.2887,0.3171,0.3073,0.3078,0.3081,0,0.2015,0.2102,0.2203,0.231,0.2353,0.2378,0.2462,0.2471,0.2549,0.2589,0.2649,0.2703,0.2758,0.2701,0.2854,0.2778,0.2863,0.2921,0.2936,0.2948,0.296,0.3128,0.3224,0.3129,0.3122,0.3119,0.3116,0,0.2026,0.2146,0.2226,0.2272,0.2386,0.2407,0.2444,0.2509,0.2544,0.2685,0.2783,0.2856,0.2949,0.3033,0.3102,0.3028,0.3324,0.3253,0.3336,0.334,0.329,0.3282,0.3343,0.3394,0.3393,0.3393,0.3392,0,0.2084,0.2154,0.2243,0.2316,0.2375,0.2448,0.2515,0.256,0.2674,0.2755,0.2843,0.295,0.3039,0.3196,0.3231,0.3385,0.3443,0.3373,0.343,0.3288,0.3276,0.3239,0.3192,0.3405,0.3402,0.34,0.3398,0,0.2128,0.2189,0.2286,0.2387,0.2402,0.2456,0.2535,0.2598,0.2711,0.2843,0.291,0.309,0.3262,0.3367,0.3564,0.3574,0.3636,0.3756,0.3595,0.3624,0.3539,0.3497,0.3535,0.3448,0.3911,0.3913,0.3914,0,0.217,0.2232,0.2315,0.234,0.2389,0.2456,0.249,0.2595,0.2665,0.2898,0.2975,0.3216,0.3324,0.3647,0.3709,0.3864,0.3723,0.3891,0.3668,0.3551,0.355,0.3374,0.3282,0.364,0.3639,0.3638,0.3638,0,0.2243,0.2255,0.2326,0.2359,0.2401,0.2438,0.2507,0.2561,0.2696,0.2818,0.3005,0.3141,0.3421,0.3523,0.3758,0.3817,0.37,0.3882,0.3804,0.3382,0.3157,0.3094,0.3429,0.3633,0.3633,0.3634,0.3634,0.3634,0.2253,0.2292,0.2342,0.2366,0.2387,0.2401,0.241,0.2494,0.2583,0.2731,0.2936,0.3083,0.3342,0.3594,0.3684,0.3728,0.3626,0.3633,0.3621,0.3476,0.3272,0.3606,0.3824,0.3826,0.3827,0.3828,0.3829,0,0.2274,0.2309,0.2335,0.235,0.2323,0.2351,0.2395,0.2387,0.2438,0.2609,0.2754,0.2983,0.3157,0.3358,0.3532,0.3497,0.3317,0.3423,0.312,0.3062,0.3425,0.3286,0.3342,0.3342,0.3342,0.3342,0.3342,0.3342,0.2291,0.2332,0.2342,0.2283,0.2257,0.2211,0.2208,0.221,0.2283,0.2374,0.2482,0.2658,0.3003,0.3314,0.3376,0.3312,0.3073,0.294,0.2938,0.316,0.3175,0.3189,0.3043,0.3047,0.3047,0.2407,0.2403,0.24]},{"header":{"parameterUnit":"m.s-1","parameterCategory":2,"la1":30.2991,"la2":30.254,"lo1":-89.0895,"lo2":-89.0444,"dy":0.0017,"dx":0.0017,"nx":28,"ny":28,"refTime":"2025-04-13T21:00:00:Z","depth":"0","parameterNumber":3,"parameterNumberName":"V-component_of_CURRENTS"},"data":[0,0,0,0,0,0,0,0,0,0,0,0,0,0,0,0,0,0,0,0,0,0,0,0,0,0,0,0,0,0,0,0,0,0,0,0,0,0,0,0,0,0,0,0,0,0,0,0,0,0,0,0,0,0,0,0,0,0,0.0186,0.0186,0,0.0178,0.0178,0.0178,0.0167,0.0167,0.0166,0.0166,0.0133,0.0133,0.0132,0,0,0,0,0,0,0,0,0,0,0,0,0,0.0218,0.0218,0.0186,0.0186,0.0185,0.0178,0.0178,0.0178,0.0167,0.0167,0.0166,0.0165,0.0133,0.0133,0.0132,0,0,0,0,0,0,0,0,0,0,0,0,0,0.021,0.0218,0.0186,0.0177,0.0176,0.0178,0.0178,0.0178,0.0167,0.0167,0.0166,0.0165,0.0133,0.0133,0.0132,0.0142,0,0,0.013,0.013,0,0,0,0,0,0,0,0,0.021,0.0209,0.0179,0.0177,0.0176,0.017,0.0177,0.0164,0.0167,0.0174,0.0166,0.0165,0.0142,0.014,0.0145,0.0141,0.0139,0.013,0.013,0.0129,0.0129,0,0,0,0,0,0,0,0.0211,0.0209,0.0186,0.0178,0.0177,0.0182,0.018,0.0175,0.0164,0.0173,0.0171,0.0166,0.0141,0.0146,0.0144,0.0139,0.013,0.013,0.0129,0.0129,0.0087,0.0086,0,0,0,0,0,0,0.0205,0.021,0.0186,0.0185,0.0188,0.0181,0.0179,0.0175,0.0164,0.0161,0.0167,0.0165,0.0147,0.0145,0.0143,0.0132,0.0129,0.0129,0.0128,0.0087,0.0086,0.0086,0,0,0,0,0,0,0.0206,0.0203,0.0187,0.0195,0.0193,0.0181,0.0177,0.0175,0.0174,0.0159,0.0156,0.0166,0.0147,0.0144,0.0121,0.0131,0.0129,0.0128,0.0088,0.0087,0.0086,0.0123,0,0,0,0,0,0,0.0207,0.0204,0.02,0.0195,0.0192,0.0199,0.0177,0.0176,0.0171,0.0169,0.0157,0.0154,0.0146,0.0122,0.012,0.013,0.0127,0.0089,0.0088,0.0086,0.0123,0.0123,0.0124,0,0,0,0,0,0.0208,0.0212,0.02,0.0197,0.0187,0.0199,0.02,0.019,0.0171,0.0184,0.0152,0.0154,0.0112,0.0121,0.0119,0.0129,0.009,0.0088,0.0086,0.0123,0.0123,0.0124,0,0,0,0,0,0,0.0228,0.021,0.0197,0.0195,0.0199,0.0196,0.0211,0.019,0.0178,0.0175,0.0146,0.0141,0.0122,0.0115,0.0125,0.0108,0.0101,0.0099,0.0129,0.0129,0.013,0.0196,0.0127,0,0,0,0,0,0.0228,0.0224,0.0214,0.0215,0.0224,0.0214,0.0215,0.0209,0.0195,0.019,0.0171,0.0145,0.0117,0.0113,0.0094,0.0093,0.0098,0.0095,0.0095,0.0096,0.0146,0.0138,0.0144,0.008,0.008,0.008,0,0,0.0233,0.0225,0.0221,0.0219,0.0228,0.0257,0.0216,0.0231,0.024,0.0188,0.0193,0.0146,0.0112,0.0102,0.0094,0.0099,0.0108,0.0094,0.0095,0.0146,0.0138,0.0144,0.015,0.0079,0.0079,0.0079,0,0,0.0264,0.0246,0.0264,0.0276,0.0286,0.0286,0.0288,0.0284,0.0272,0.0262,0.0212,0.0178,0.0149,0.0129,0.0111,0.0107,0.0103,0.0083,0.0156,0.0147,0.0153,0.0159,0.0146,0.0151,0.0094,0.0094,0.0094,0,0.0278,0.0297,0.0274,0.0309,0.0331,0.0302,0.0347,0.0334,0.0312,0.0313,0.0273,0.0222,0.0174,0.0169,0.0151,0.0115,0.0105,0.0157,0.0152,0.0158,0.0164,0.0149,0.0153,0.0096,0.0096,0.0096,0.0095,0,0.0329,0.0353,0.0377,0.0409,0.0424,0.0463,0.0449,0.0447,0.0417,0.0405,0.0384,0.0312,0.0293,0.0246,0.0195,0.0203,0.0179,0.0145,0.0161,0.0173,0.0155,0.0159,0.0098,0.0098,0.0097,0.0097,0,0,0.0359,0.0404,0.0415,0.0465,0.0486,0.0519,0.0528,0.0549,0.0584,0.0525,0.0568,0.0465,0.0429,0.0407,0.0328,0.031,0.0296,0.0248,0.0247,0.0256,0.0275,0.029,0.0296,0.0256,0.0258,0.0259,0.0237,0,0.0423,0.0512,0.0503,0.0604,0.067,0.0649,0.0676,0.068,0.0668,0.0698,0.0616,0.063,0.0488,0.0488,0.0432,0.0338,0.0314,0.0306,0.0247,0.0246,0.0275,0.0305,0.023,0.0209,0.0241,0.0242,0.0242,0,0.0494,0.055,0.0651,0.074,0.0766,0.0811,0.0879,0.0897,0.0906,0.0897,0.0876,0.0827,0.0774,0.0669,0.0529,0.0526,0.0416,0.0337,0.0333,0.0357,0.0272,0.0204,0.0215,0.0012,0.0249,0.0248,0.0248,0,0.0576,0.0664,0.0754,0.0786,0.0865,0.0906,0.0946,0.0971,0.1022,0.1053,0.1113,0.1016,0.1014,0.0854,0.0651,0.0598,0.0524,0.0427,0.0344,0.0342,0.028,0.0272,0.0116,0.0369,0.0369,0.0369,0.0369,0,0.0681,0.0761,0.0809,0.0876,0.0987,0.1013,0.1132,0.1146,0.1223,0.132,0.1238,0.1304,0.1065,0.0978,0.075,0.0575,0.0592,0.0394,0.0356,0.0285,0.0278,0.0101,0.0007,0.0368,0.0369,0.0369,0.0369,0,0.0785,0.0813,0.0925,0.1009,0.1038,0.1129,0.1255,0.135,0.1406,0.1537,0.1572,0.1543,0.1414,0.1172,0.0942,0.0745,0.0448,0.0493,0.043,0.0386,0.0111,0.0023,-0.0077,-0.0148,0.0397,0.0398,0.0398,0,0.0852,0.0921,0.1009,0.1067,0.1116,0.1239,0.1329,0.1424,0.1537,0.168,0.1766,0.1729,0.1684,0.1374,0.0996,0.0653,0.0469,0.0438,0.0328,0.0129,-0.0,-0.0059,-0.0116,0.0228,0.0227,0.0226,0.0225,0,0.0981,0.0994,0.1062,0.116,0.1267,0.1403,0.1549,0.1668,0.1793,0.1907,0.204,0.2039,0.1746,0.1383,0.0967,0.0714,0.0299,0.0416,0.0211,-0.0111,-0.0185,-0.0284,0.0204,0.0218,0.0219,0.022,0.022,0.022,0.1046,0.1097,0.1154,0.125,0.1365,0.1544,0.1674,0.1833,0.2015,0.218,0.2202,0.2187,0.1722,0.1118,0.0809,0.0199,0.0223,-0.0014,-0.0096,-0.013,-0.0212,0.029,0.0267,0.0268,0.0268,0.0269,0.027,0,0.1127,0.1166,0.1246,0.1365,0.1485,0.1551,0.1794,0.1928,0.2124,0.2234,0.2321,0.2041,0.1467,0.0907,0.0113,-0.0259,-0.0413,-0.0467,-0.0628,-0.0655,-0.0234,-0.0258,-0.0396,-0.0396,-0.0396,-0.0396,-0.0395,-0.0395,0.1172,0.1256,0.1279,0.1442,0.1522,0.1731,0.1873,0.2063,0.2183,0.227,0.2214,0.2191,0.1765,0.037,-0.0533,-0.0736,-0.0998,-0.1073,-0.1132,-0.094,-0.0907,-0.0875,-0.0923,-0.1198,-0.1199,-0.1567,-0.1571,-0.1574]}],[{"header":{"parameterUnit":"m.s-1","parameterCategory":2,"la1":30.2991,"la2":30.254,"lo1":-89.0895,"lo2":-89.0444,"dy":0.0017,"dx":0.0017,"nx":28,"ny":28,"refTime":"2025-04-13T21:00:00:Z","depth":"2","parameterNumber":2,"parameterNumberName":"U-component_of_CURRENTS"},"data":[0,0,0,0,0,0,0,0,0,0,0,0,0,0,0,0,0,0,0,0,0,0,0,0,0,0,0,0,0,0,0,0,0,0,0,0,0,0,0,0,0,0,0,0,0,0,0,0,0,0,0,0,0,0,0,0,0,0,0.1673,0.1675,0,0.1901,0.1904,0.1907,0.2004,0.2003,0.2002,0.2001,0.1795,0.179,0.1786,0,0,0,0,0,0,0,0,0,0,0,0,0,0.1541,0.1542,0.1673,0.1675,0.1678,0.19,0.1904,0.1908,0.2004,0.2003,0.2002,0.2001,0.1797,0.1791,0.1785,0,0,0,0,0,0,0,0,0,0,0,0,0,0.1671,0.1543,0.1673,0.1749,0.1758,0.19,0.1904,0.1908,0.2004,0.2003,0.2001,0.2,0.1798,0.1792,0.1785,0.1768,0,0,0.1763,0.176,0,0,0,0,0,0,0,0,0.1663,0.1676,0.1735,0.1744,0.1754,0.1918,0.1782,0.1838,0.2004,0.1916,0.2001,0.1999,0.1793,0.1787,0.1846,0.1758,0.1749,0.1763,0.1758,0.1755,0.1753,0,0,0,0,0,0,0,0.1654,0.1668,0.1768,0.1738,0.1749,0.1847,0.1862,0.1797,0.1855,0.1923,0.193,0.1947,0.1796,0.1853,0.184,0.1746,0.1763,0.1757,0.1752,0.175,0.1799,0.1804,0,0,0,0,0,0,0.1605,0.1658,0.1761,0.1775,0.1699,0.1849,0.1867,0.1871,0.1865,0.1866,0.1948,0.1951,0.1866,0.1849,0.1833,0.1848,0.1755,0.1749,0.1745,0.1793,0.18,0.1806,0,0,0,0,0,0,0.1602,0.1612,0.1752,0.1719,0.1743,0.185,0.1856,0.1876,0.1958,0.1888,0.1881,0.2011,0.1864,0.1843,0.1821,0.1837,0.1746,0.1739,0.1787,0.1795,0.1803,0.1851,0,0,0,0,0,0,0.1597,0.1609,0.1629,0.1715,0.1742,0.1817,0.1857,0.1881,0.1967,0.1974,0.1938,0.1918,0.1861,0.1833,0.1814,0.1826,0.1734,0.178,0.1791,0.18,0.1842,0.186,0.1874,0,0,0,0,0,0.1591,0.1608,0.1628,0.1643,0.1754,0.1816,0.1841,0.1918,0.1971,0.1993,0.2009,0.1921,0.1887,0.183,0.1807,0.1817,0.1775,0.1787,0.1799,0.1835,0.1856,0.1874,0,0,0,0,0,0,0.1573,0.1621,0.1645,0.1679,0.1734,0.183,0.1864,0.1941,0.1991,0.1968,0.1955,0.1935,0.1939,0.1898,0.1838,0.1885,0.183,0.1838,0.1865,0.1884,0.19,0.1842,0.1728,0,0,0,0,0,0.1572,0.1591,0.1649,0.1681,0.1691,0.1792,0.1845,0.1872,0.1917,0.1946,0.1979,0.1984,0.1978,0.1943,0.1936,0.1918,0.1924,0.1936,0.1952,0.1964,0.1918,0.2011,0.2028,0.1846,0.1846,0.1846,0,0,0.1578,0.1607,0.1623,0.1679,0.1722,0.176,0.182,0.1849,0.1906,0.1896,0.2008,0.2028,0.1999,0.2012,0.2009,0.1962,0.2036,0.198,0.1989,0.1934,0.2025,0.2042,0.2056,0.1855,0.1853,0.1852,0,0,0.1594,0.1606,0.1629,0.167,0.1705,0.1733,0.1747,0.1856,0.1914,0.1991,0.2031,0.2062,0.2095,0.2081,0.2066,0.2165,0.2135,0.2206,0.2191,0.2285,0.2298,0.2309,0.2378,0.2395,0.2191,0.2191,0.2191,0,0.1622,0.1645,0.165,0.169,0.1734,0.1726,0.1772,0.1812,0.1932,0.1986,0.201,0.2158,0.2113,0.2126,0.2169,0.218,0.2248,0.2098,0.2297,0.2308,0.2318,0.2386,0.2404,0.2195,0.2195,0.2194,0.2194,0,0.1646,0.1691,0.1696,0.1733,0.1772,0.1783,0.1813,0.1868,0.1941,0.2018,0.2113,0.2127,0.2212,0.2228,0.2196,0.2273,0.2307,0.2318,0.222,0.2338,0.2405,0.2422,0.22,0.2199,0.2198,0.2197,0,0,0.1659,0.1713,0.1723,0.1777,0.1792,0.1829,0.1855,0.191,0.1981,0.2062,0.2222,0.2197,0.2252,0.2244,0.226,0.2295,0.2423,0.2333,0.2336,0.2351,0.2651,0.2533,0.254,0.25,0.2503,0.2505,0.268,0,0.1694,0.1784,0.1793,0.188,0.1924,0.1924,0.198,0.2014,0.2076,0.2221,0.2201,0.2333,0.2243,0.2326,0.2337,0.2425,0.2468,0.2373,0.2576,0.258,0.2418,0.2555,0.2349,0.2475,0.2696,0.2699,0.2701,0,0.1725,0.1783,0.1883,0.1986,0.2004,0.2047,0.2129,0.2183,0.2263,0.2338,0.2397,0.2455,0.2488,0.2459,0.2542,0.2511,0.2569,0.2608,0.2618,0.2477,0.2491,0.2394,0.2498,0.2729,0.2727,0.2725,0.2723,0,0.1758,0.1857,0.1943,0.1983,0.207,0.2123,0.216,0.2229,0.2292,0.2445,0.2541,0.2591,0.2689,0.2722,0.2742,0.27,0.2882,0.2847,0.2779,0.2773,0.2607,0.258,0.2934,0.2934,0.2933,0.2933,0.2932,0,0.1819,0.1903,0.197,0.2034,0.2115,0.2183,0.2281,0.2334,0.2448,0.2523,0.2615,0.269,0.2776,0.2869,0.2847,0.2852,0.2968,0.2774,0.281,0.2627,0.26,0.2809,0.2792,0.2939,0.2938,0.2937,0.2935,0,0.1876,0.1934,0.2016,0.2104,0.2141,0.2202,0.2315,0.2374,0.2501,0.2623,0.269,0.2834,0.288,0.2932,0.3044,0.3002,0.3022,0.3013,0.2771,0.2769,0.2822,0.2807,0.2931,0.2928,0.2926,0.2924,0.2922,0,0.1928,0.1972,0.2034,0.2061,0.2109,0.2204,0.2247,0.2377,0.2429,0.2647,0.269,0.2845,0.2821,0.2934,0.2905,0.2883,0.296,0.278,0.2595,0.2799,0.2823,0.2811,0.28,0.2439,0.2433,0.2429,0.2425,0,0.1974,0.1969,0.1999,0.2029,0.2081,0.2149,0.2231,0.2275,0.2418,0.2512,0.2608,0.2636,0.2704,0.2586,0.2636,0.2583,0.2741,0.268,0.3041,0.2436,0.2339,0.2361,0.2366,0.2386,0.239,0.2393,0.2395,0.2396,0.1933,0.1921,0.1913,0.195,0.1996,0.2039,0.2096,0.2129,0.2184,0.2261,0.2377,0.2365,0.242,0.2271,0.2227,0.2266,0.2386,0.237,0.2383,0.2402,0.2278,0.2178,0.2172,0.2175,0.2177,0.2179,0.2181,0,0.1803,0.1833,0.1845,0.1855,0.1886,0.1982,0.2031,0.2022,0.2001,0.2045,0.2052,0.1896,0.1814,0.1877,0.1848,0.1879,0.1848,0.1842,0.181,0.1851,0.1887,0.1736,0.1488,0.1486,0.1484,0.1482,0,0,0.1733,0.1694,0.1701,0.1738,0.1797,0.183,0.187,0.1795,0.1776,0.1649,0.1645,0.1705,0.1825,0.1622,0.1605,0.1562,0.1686,0.1499,0.2058,0.206,0.2093,0.2199,0.2012,0,0,0,0,0]},{"header":{"parameterUnit":"m.s-1","parameterCategory":2,"la1":30.2991,"la2":30.254,"lo1":-89.0895,"lo2":-89.0444,"dy":0.0017,"dx":0.0017,"nx":28,"ny":28,"refTime":"2025-04-13T21:00:00:Z","depth":"2","parameterNumber":3,"parameterNumberName":"V-component_of_CURRENTS"},"data":[0,0,0,0,0,0,0,0,0,0,0,0,0,0,0,0,0,0,0,0,0,0,0,0,0,0,0,0,0,0,0,0,0,0,0,0,0,0,0,0,0,0,0,0,0,0,0,0,0,0,0,0,0,0,0,0,0,0,-0.0232,-0.0232,0,-0.0157,-0.0155,-0.0154,-0.009,-0.0091,-0.0091,-0.0092,-0.0275,-0.0279,-0.0284,0,0,0,0,0,0,0,0,0,0,0,0,0,-0.0057,-0.0061,-0.0232,-0.0232,-0.0232,-0.0158,-0.0155,-0.0153,-0.009,-0.0091,-0.0091,-0.0092,-0.0273,-0.0279,-0.0284,0,0,0,0,0,0,0,0,0,0,0,0,0,-0.0062,-0.0062,-0.0232,-0.0201,-0.0198,-0.0158,-0.0155,-0.0153,-0.009,-0.0091,-0.0092,-0.0092,-0.0272,-0.0278,-0.0285,-0.0314,0,0,-0.0305,-0.0308,0,0,0,0,0,0,0,0,-0.0062,-0.0067,-0.0205,-0.0203,-0.02,-0.0144,-0.0161,-0.0224,-0.009,-0.0118,-0.0092,-0.0092,-0.0263,-0.027,-0.0234,-0.0322,-0.033,-0.0306,-0.031,-0.0313,-0.0315,0,0,0,0,0,0,0,-0.0062,-0.0068,-0.019,-0.0206,-0.0203,-0.0101,-0.0104,-0.0169,-0.0183,-0.0116,-0.0114,-0.0125,-0.0261,-0.0227,-0.0239,-0.0333,-0.0306,-0.0312,-0.0316,-0.0318,-0.0352,-0.0349,0,0,0,0,0,0,-0.011,-0.007,-0.0193,-0.0189,-0.0145,-0.0106,-0.0108,-0.0152,-0.0177,-0.0183,-0.0125,-0.0123,-0.0215,-0.0231,-0.0245,-0.025,-0.0313,-0.0319,-0.0323,-0.0355,-0.0351,-0.0347,0,0,0,0,0,0,-0.0107,-0.0123,-0.0196,-0.0134,-0.0138,-0.0112,-0.0159,-0.015,-0.0105,-0.0183,-0.0191,-0.009,-0.0216,-0.0236,-0.0275,-0.0259,-0.0322,-0.0328,-0.0358,-0.0354,-0.0349,-0.0283,0,0,0,0,0,0,-0.0102,-0.0123,-0.0123,-0.014,-0.0144,-0.0167,-0.0159,-0.0149,-0.0118,-0.0113,-0.0157,-0.0174,-0.0218,-0.0264,-0.0281,-0.027,-0.0333,-0.0362,-0.0356,-0.0351,-0.0289,-0.0277,-0.0266,0,0,0,0,0,-0.0097,-0.0106,-0.0124,-0.0137,-0.0164,-0.0168,-0.0157,-0.013,-0.0116,-0.009,-0.0109,-0.0172,-0.0237,-0.0268,-0.0289,-0.0279,-0.0365,-0.0358,-0.0351,-0.0295,-0.0279,-0.0266,0,0,0,0,0,0,-0.0023,-0.0103,-0.0122,-0.0155,-0.0163,-0.0162,-0.0143,-0.012,-0.0102,-0.0123,-0.0158,-0.0176,-0.0198,-0.0234,-0.0266,-0.0258,-0.0302,-0.0299,-0.0251,-0.0238,-0.0226,-0.0206,-0.0339,0,0,0,0,0,-0.0018,-0.0048,-0.0103,-0.0121,-0.0147,-0.0139,-0.0123,-0.0127,-0.0137,-0.0125,-0.0126,-0.0149,-0.0182,-0.0208,-0.0238,-0.0259,-0.0301,-0.025,-0.0238,-0.0228,-0.0218,-0.0249,-0.0241,-0.0324,-0.0324,-0.0324,0,0,0.0001,-0.004,-0.0059,-0.0105,-0.0123,-0.0114,-0.0128,-0.0144,-0.0097,-0.0162,-0.0083,-0.0124,-0.0175,-0.0179,-0.0191,-0.0215,-0.0226,-0.0219,-0.0212,-0.0206,-0.0241,-0.0234,-0.0227,-0.0319,-0.032,-0.0321,0,0,0.0037,-0.0028,-0.0036,-0.0049,-0.0094,-0.0096,-0.0101,-0.0098,-0.0065,-0.0032,-0.0055,-0.0077,-0.0088,-0.0114,-0.0139,-0.0081,-0.0164,-0.0079,-0.0019,-0.0049,-0.0044,-0.004,-0.0097,-0.0099,-0.0073,-0.0073,-0.0073,0,0.0084,0.0046,-0.0026,-0.0027,-0.0017,-0.0086,-0.0062,-0.0046,-0.0021,0.0,-0.0005,0.0008,-0.0053,-0.0067,-0.0035,-0.0063,-0.0095,-0.0083,-0.004,-0.0036,-0.0034,-0.0093,-0.0095,-0.0069,-0.0069,-0.007,-0.007,0,0.0102,0.0098,0.0082,0.0059,0.007,0.0054,0.0034,0.0064,0.0086,0.0107,0.0125,0.0077,0.0084,0.0067,0.0022,0.0027,-0.0008,-0.003,-0.009,-0.0022,-0.0088,-0.0092,-0.0063,-0.0065,-0.0066,-0.0067,0,0,0.0149,0.011,0.0114,0.0147,0.0105,0.0124,0.015,0.0172,0.0219,0.0223,0.0307,0.0241,0.0212,0.0187,0.0133,0.0103,0.0075,0.0056,0.0052,-0.0025,-0.0007,-0.0077,-0.009,0.0059,0.006,0.006,-0.0068,0,0.02,0.0238,0.0209,0.0289,0.0302,0.0264,0.0323,0.0328,0.0339,0.0404,0.0317,0.0365,0.0258,0.0273,0.0211,0.0116,0.0072,0.011,-0.0037,-0.0042,-0.0134,-0.0093,-0.006,-0.0174,-0.0072,-0.0073,-0.0074,0,0.024,0.0265,0.0337,0.0414,0.0417,0.0474,0.0538,0.0583,0.0577,0.0591,0.0562,0.0519,0.0455,0.0392,0.0212,0.0244,0.0132,0.0048,0.0041,-0.0049,-0.0119,-0.0218,-0.0186,-0.0082,-0.0081,-0.008,-0.008,0,0.0329,0.038,0.0459,0.0473,0.0522,0.0583,0.0629,0.0642,0.0702,0.0729,0.0774,0.066,0.0671,0.0483,0.0278,0.0257,0.0096,0.0038,-0.0138,-0.0146,-0.0158,-0.0167,-0.0059,-0.0059,-0.0059,-0.0058,-0.0058,0,0.041,0.0489,0.0515,0.056,0.0676,0.0693,0.0823,0.0838,0.0893,0.0959,0.0889,0.09,0.0709,0.0578,0.0336,0.0076,0.0125,-0.0124,-0.0175,-0.0134,-0.0139,-0.0085,-0.0086,-0.0063,-0.0062,-0.0061,-0.006,0,0.0507,0.0522,0.0606,0.0671,0.0718,0.0803,0.0949,0.102,0.1077,0.1167,0.1196,0.1118,0.0896,0.066,0.0388,0.0196,-0.0067,-0.0157,-0.0109,-0.0152,-0.0313,-0.0309,-0.0399,-0.0402,-0.0405,-0.0407,-0.0409,0,0.0571,0.0611,0.0671,0.0732,0.0779,0.0917,0.0996,0.1093,0.1159,0.1251,0.1273,0.1172,0.0954,0.0528,0.0239,-0.0165,-0.0168,-0.031,-0.0356,-0.0303,-0.0344,-0.0335,-0.0327,-0.0354,-0.0355,-0.0356,-0.0357,0,0.0657,0.065,0.0679,0.0775,0.0879,0.1016,0.1143,0.1228,0.1326,0.1374,0.1328,0.117,0.0804,0.0398,-0.0005,-0.0257,-0.0259,-0.035,-0.0278,-0.0274,-0.0271,-0.0308,-0.0299,-0.0367,-0.0366,-0.0365,-0.0365,-0.0364,0.0668,0.0677,0.0682,0.0798,0.0907,0.1055,0.1211,0.1279,0.1365,0.1404,0.1264,0.1052,0.0721,0.0104,-0.0215,-0.0406,-0.044,-0.0514,-0.0506,-0.0497,-0.047,-0.0472,-0.0603,-0.0603,-0.0603,-0.0604,-0.0604,0,0.0598,0.0653,0.0733,0.0831,0.097,0.1081,0.1255,0.1353,0.1412,0.135,0.1217,0.0824,0.0377,0.0059,-0.0253,-0.053,-0.0502,-0.0593,-0.0486,-0.0477,-0.0468,-0.0434,-0.0561,-0.0561,-0.0561,-0.0561,0,0,0.0558,0.0574,0.0615,0.0846,0.1002,0.1233,0.1375,0.1422,0.141,0.1262,0.1155,0.0852,0.0449,0.0219,-0.0145,-0.0311,-0.0317,-0.035,-0.0363,-0.0185,-0.0172,-0.0414,-0.0352,0,0,0,0,0]}],[{"header":{"parameterUnit":"m.s-1","parameterCategory":2,"la1":30.2991,"la2":30.254,"lo1":-89.0895,"lo2":-89.0444,"dy":0.0017,"dx":0.0017,"nx":28,"ny":28,"refTime":"2025-04-13T21:00:00:Z","depth":"4","parameterNumber":2,"parameterNumberName":"U-component_of_CURRENTS"},"data":[0,0,0,0,0,0,0,0,0,0,0,0,0,0,0,0,0,0,0,0,0,0,0,0,0,0,0,0,0,0,0,0,0,0,0,0,0,0,0,0,0,0,0,0,0,0,0,0,0,0,0,0,0,0,0,0,0,0,0.0079,0.0078,0,0.0038,0.0038,0.0038,0.0054,0.0055,0.0055,0.0055,0.0156,0.0158,0.0161,0,0,0,0,0,0,0,0,0,0,0,0,0,0.0226,0.0223,0.0079,0.0078,0.0076,0.0038,0.0038,0.0039,0.0054,0.0055,0.0055,0.0056,0.0155,0.0158,0.0161,0,0,0,0,0,0,0,0,0,0,0,0,0,0.0178,0.0223,0.0079,0.0075,0.0074,0.0038,0.0038,0.0039,0.0054,0.0055,0.0055,0.0056,0.0154,0.0158,0.0161,0.0174,0,0,0.0172,0.0174,0,0,0,0,0,0,0,0,0.018,0.0173,0.0076,0.0075,0.0073,0.0046,0.0127,0.0088,0.0054,0.0069,0.0055,0.0056,0.0127,0.0133,0.0132,0.0178,0.0183,0.0172,0.0175,0.0176,0.0177,0,0,0,0,0,0,0,0.0184,0.0175,0.007,0.0075,0.0073,0.0094,0.0088,0.012,0.0104,0.0068,0.0067,0.0051,0.0129,0.0129,0.0135,0.0184,0.0172,0.0175,0.0178,0.0179,0.0284,0.0285,0,0,0,0,0,0,0.0171,0.0178,0.0071,0.0068,0.0122,0.009,0.0084,0.006,0.01,0.0104,0.0051,0.0052,0.0122,0.0131,0.0139,0.0215,0.0176,0.0179,0.0181,0.0284,0.0284,0.0285,0,0,0,0,0,0,0.0174,0.0161,0.0072,0.0118,0.0107,0.0086,0.006,0.0059,0.007,0.0085,0.0093,0.0064,0.0123,0.0134,0.0163,0.0217,0.0181,0.0184,0.0283,0.0284,0.0285,0.0331,0,0,0,0,0,0,0.0178,0.0163,0.0139,0.0116,0.0103,0.0062,0.0058,0.0057,0.0055,0.0057,0.0098,0.0107,0.0124,0.0157,0.0166,0.0221,0.0187,0.0282,0.0283,0.0284,0.0328,0.0333,0.0337,0,0,0,0,0,0.0184,0.0146,0.0138,0.0125,0.0072,0.0061,0.0058,0.005,0.0056,0.0064,0.0079,0.0106,0.0173,0.016,0.0171,0.0228,0.0281,0.0283,0.0284,0.0326,0.0332,0.0337,0,0,0,0,0,0,0.0205,0.0143,0.0134,0.0082,0.0077,0.0062,0.0054,0.0057,0.0074,0.0087,0.0105,0.0115,0.0162,0.0177,0.0163,0.0258,0.0237,0.024,0.0265,0.0271,0.0275,0.037,0.019,0,0,0,0,0,0.0195,0.0148,0.0119,0.0084,0.008,0.0074,0.0066,0.0075,0.0081,0.0089,0.0107,0.0138,0.0174,0.0206,0.0228,0.0281,0.0327,0.0325,0.033,0.0334,0.0416,0.0485,0.0505,0.029,0.029,0.029,0,0,0.0192,0.0152,0.0126,0.0085,0.0081,0.0087,0.0074,0.0079,0.0105,0.01,0.0136,0.0149,0.0184,0.0236,0.0263,0.0262,0.0407,0.0335,0.0339,0.0421,0.0489,0.0511,0.053,0.0291,0.0291,0.0291,0,0,0.0179,0.0137,0.0107,0.0111,0.0103,0.01,0.0106,0.0104,0.0127,0.0153,0.0163,0.0219,0.0241,0.0304,0.0334,0.0383,0.0416,0.0369,0.0494,0.0557,0.0577,0.0595,0.0639,0.0662,0.0387,0.0387,0.0387,0,0.0173,0.0145,0.0105,0.0105,0.0117,0.011,0.0132,0.0148,0.016,0.0219,0.0174,0.029,0.0297,0.0431,0.044,0.0407,0.043,0.0467,0.0568,0.0587,0.0605,0.0647,0.067,0.039,0.0389,0.0389,0.0389,0,0.0163,0.0155,0.015,0.0139,0.0148,0.017,0.0188,0.0232,0.0248,0.0283,0.0399,0.0412,0.0514,0.0497,0.0486,0.0633,0.06,0.0549,0.0562,0.0631,0.0667,0.0692,0.0393,0.0392,0.0391,0.0391,0,0,0.0128,0.0132,0.0145,0.0163,0.0184,0.0194,0.0268,0.0348,0.0458,0.0469,0.0594,0.0661,0.0709,0.075,0.0751,0.0809,0.0912,0.0745,0.0747,0.0807,0.1045,0.0868,0.0877,0.0864,0.0869,0.0874,0.1004,0,0.0145,0.0158,0.0166,0.0214,0.0227,0.0286,0.0339,0.0427,0.0536,0.0645,0.0717,0.08,0.079,0.0835,0.0914,0.0899,0.0986,0.0883,0.096,0.0964,0.0813,0.0904,0.0891,0.1022,0.1028,0.1032,0.1035,0,0.015,0.016,0.0202,0.0263,0.0278,0.0317,0.0496,0.0562,0.0743,0.0812,0.0986,0.102,0.1148,0.107,0.1223,0.1148,0.115,0.1128,0.113,0.0994,0.0835,0.095,0.1079,0.1075,0.1072,0.1069,0.1066,0,0.0146,0.0198,0.0233,0.0256,0.0311,0.0388,0.0449,0.0642,0.0717,0.0951,0.0992,0.1209,0.1204,0.1324,0.1293,0.1275,0.1382,0.1341,0.1215,0.12,0.1299,0.1279,0.1489,0.1489,0.1489,0.1489,0.1488,0,0.0148,0.0186,0.0245,0.0263,0.0335,0.0399,0.0544,0.067,0.0825,0.0918,0.1075,0.1136,0.1252,0.1302,0.136,0.1347,0.1455,0.13,0.1248,0.1303,0.1283,0.1314,0.1291,0.1493,0.1492,0.1491,0.1491,0,0.0125,0.0161,0.0195,0.0281,0.032,0.0382,0.0496,0.0612,0.0753,0.0884,0.091,0.1039,0.1129,0.123,0.1345,0.1335,0.1393,0.1353,0.1406,0.1342,0.1177,0.1155,0.1324,0.132,0.1316,0.1313,0.131,0,0.0104,0.012,0.0193,0.0224,0.0268,0.0364,0.0421,0.0561,0.0669,0.0817,0.0831,0.0924,0.1021,0.1079,0.118,0.1325,0.1288,0.1314,0.1309,0.1241,0.1174,0.1158,0.1142,0.1304,0.1303,0.1302,0.1301,0,0.0066,0.0094,0.0115,0.0174,0.0235,0.0305,0.041,0.0441,0.0603,0.0683,0.0782,0.0864,0.0911,0.1029,0.1076,0.1177,0.1322,0.1275,0.1285,0.1282,0.1218,0.1151,0.114,0.1287,0.1289,0.1291,0.1291,0,0.0031,0.0037,0.0067,0.0121,0.0184,0.0262,0.0319,0.0414,0.049,0.0664,0.0677,0.0808,0.0898,0.0944,0.1018,0.1075,0.1108,0.1109,0.1129,0.1145,0.1017,0.0905,0.0891,0,0,0,0,0,-0.0001,0.0002,0.003,0.009,0.015,0.0208,0.0312,0.0372,0.0487,0.0552,0.0637,0.0723,0.0826,0.086,0.09,0.0932,0.1094,0.0967,0.11,0.1213,0.1229,0.109,0,0,0,0,0,0,-0.0019,-0.0017,-0.0001,0.0051,0.0101,0.0185,0.0254,0.0343,0.0392,0.0511,0.0572,0.0663,0.0766,0.0814,0.0881,0.0898,0.0965,0.1044,0.1042,0.1204,0.1218,0.1231,0.1094,0,0,0,0,0]},{"header":{"parameterUnit":"m.s-1","parameterCategory":2,"la1":30.2991,"la2":30.254,"lo1":-89.0895,"lo2":-89.0444,"dy":0.0017,"dx":0.0017,"nx":28,"ny":28,"refTime":"2025-04-13T21:00:00:Z","depth":"4","parameterNumber":3,"parameterNumberName":"V-component_of_CURRENTS"},"data":[0,0,0,0,0,0,0,0,0,0,0,0,0,0,0,0,0,0,0,0,0,0,0,0,0,0,0,0,0,0,0,0,0,0,0,0,0,0,0,0,0,0,0,0,0,0,0,0,0,0,0,0,0,0,0,0,0,0,0.0008,0.0007,0,-0.0101,-0.0102,-0.0103,-0.0194,-0.0195,-0.0196,-0.0197,-0.03,-0.0302,-0.0304,0,0,0,0,0,0,0,0,0,0,0,0,0,-0.0,0.0002,0.0008,0.0007,0.0005,-0.0101,-0.0102,-0.0103,-0.0194,-0.0195,-0.0196,-0.0198,-0.03,-0.0302,-0.0304,0,0,0,0,0,0,0,0,0,0,0,0,0,-0.004,0.0002,0.0008,-0.0054,-0.0061,-0.01,-0.0102,-0.0104,-0.0193,-0.0195,-0.0197,-0.0198,-0.0299,-0.0302,-0.0304,-0.0286,0,0,-0.0312,-0.0313,0,0,0,0,0,0,0,0,-0.0037,-0.0039,-0.0043,-0.005,-0.0057,-0.0137,-0.0143,-0.0165,-0.0193,-0.0141,-0.0197,-0.0199,-0.0245,-0.0252,-0.0267,-0.0291,-0.0296,-0.0312,-0.0314,-0.0315,-0.0316,0,0,0,0,0,0,0,-0.0034,-0.0036,-0.0033,-0.0045,-0.0053,-0.0124,-0.013,-0.0148,-0.0181,-0.0146,-0.0153,-0.0167,-0.0249,-0.0264,-0.027,-0.0297,-0.0312,-0.0314,-0.0316,-0.0317,-0.0439,-0.0441,0,0,0,0,0,0,-0.0014,-0.0032,-0.003,-0.0037,-0.0053,-0.0122,-0.0129,-0.0108,-0.0181,-0.0195,-0.0166,-0.0171,-0.0259,-0.0267,-0.0274,-0.0352,-0.0315,-0.0317,-0.0319,-0.0437,-0.0439,-0.0441,0,0,0,0,0,0,-0.0013,-0.0011,-0.0026,-0.0041,-0.0048,-0.0119,-0.0096,-0.011,-0.0147,-0.0197,-0.021,-0.0193,-0.026,-0.027,-0.0331,-0.0353,-0.0318,-0.0321,-0.0435,-0.0438,-0.044,-0.0447,0,0,0,0,0,0,-0.0012,-0.0009,-0.0007,-0.0038,-0.0046,-0.0055,-0.0095,-0.0111,-0.0153,-0.0162,-0.0223,-0.0234,-0.0262,-0.0327,-0.0334,-0.0356,-0.0323,-0.0433,-0.0437,-0.044,-0.0445,-0.045,-0.0454,0,0,0,0,0,-0.0011,0.0003,-0.0005,-0.0007,-0.0032,-0.0055,-0.0066,-0.0123,-0.0152,-0.0164,-0.0229,-0.0233,-0.0352,-0.0331,-0.0338,-0.0361,-0.0432,-0.0436,-0.0439,-0.0443,-0.0449,-0.0454,0,0,0,0,0,0,-0.001,-0.0006,-0.0015,-0.0003,-0.0029,-0.0071,-0.0104,-0.0126,-0.0184,-0.0202,-0.025,-0.0265,-0.0329,-0.0344,-0.0319,-0.0409,-0.0394,-0.0399,-0.0394,-0.04,-0.0404,-0.0371,-0.0325,0,0,0,0,0,-0.0,0.0011,-0.0,-0.0,-0.0013,-0.0057,-0.0082,-0.0104,-0.0152,-0.018,-0.0229,-0.0287,-0.0344,-0.0372,-0.0416,-0.0454,-0.0463,-0.0477,-0.0481,-0.0485,-0.0465,-0.0518,-0.0525,-0.0454,-0.0454,-0.0454,0,0,-0.0009,-0.0004,-0.0004,-0.0001,-0.0035,-0.0064,-0.0077,-0.0106,-0.0145,-0.0179,-0.0263,-0.0301,-0.036,-0.042,-0.0449,-0.0438,-0.0513,-0.049,-0.0492,-0.047,-0.0523,-0.0529,-0.0535,-0.0457,-0.0456,-0.0456,0,0,-0.0031,-0.0008,-0.0019,-0.0034,-0.0062,-0.0076,-0.0083,-0.0121,-0.0158,-0.0214,-0.0269,-0.0317,-0.0396,-0.0444,-0.0479,-0.0529,-0.0537,-0.055,-0.0542,-0.0594,-0.06,-0.0605,-0.0628,-0.0635,-0.055,-0.055,-0.055,0,-0.0045,-0.005,-0.0033,-0.0056,-0.0089,-0.0084,-0.0124,-0.0147,-0.0205,-0.0235,-0.0244,-0.0363,-0.0407,-0.0486,-0.0511,-0.0536,-0.0558,-0.0515,-0.0598,-0.0603,-0.0607,-0.0631,-0.0638,-0.0551,-0.0551,-0.0551,-0.0551,0,-0.0084,-0.0098,-0.0112,-0.0133,-0.0156,-0.018,-0.0202,-0.0225,-0.0254,-0.0278,-0.0347,-0.0394,-0.0452,-0.0487,-0.0516,-0.0577,-0.058,-0.0597,-0.0575,-0.0614,-0.0637,-0.0645,-0.0552,-0.0552,-0.0552,-0.0551,0,0,-0.0096,-0.0129,-0.014,-0.0167,-0.0197,-0.0209,-0.0265,-0.0303,-0.0328,-0.0362,-0.0418,-0.0489,-0.0471,-0.0508,-0.0539,-0.0582,-0.0639,-0.0598,-0.0601,-0.0605,-0.074,-0.0667,-0.0668,-0.0678,-0.0679,-0.068,-0.0742,0,-0.0147,-0.0191,-0.0204,-0.0268,-0.0299,-0.0309,-0.0368,-0.0393,-0.0398,-0.0437,-0.0464,-0.0524,-0.0493,-0.0524,-0.0548,-0.0619,-0.0659,-0.0619,-0.0714,-0.0716,-0.0634,-0.0674,-0.0684,-0.0748,-0.075,-0.0751,-0.0752,0,-0.0203,-0.0216,-0.0288,-0.0334,-0.0353,-0.0395,-0.044,-0.0478,-0.051,-0.0519,-0.0519,-0.0531,-0.0573,-0.0565,-0.0631,-0.0608,-0.0664,-0.0714,-0.0718,-0.0644,-0.0656,-0.0703,-0.0765,-0.0764,-0.0763,-0.0762,-0.0761,0,-0.0224,-0.0281,-0.0336,-0.0355,-0.0406,-0.0455,-0.0487,-0.0517,-0.0533,-0.0566,-0.0571,-0.0585,-0.0629,-0.0659,-0.0688,-0.0684,-0.0777,-0.0792,-0.0777,-0.0773,-0.0814,-0.0808,-0.087,-0.087,-0.087,-0.087,-0.0869,0,-0.0263,-0.0299,-0.0354,-0.0374,-0.0434,-0.0486,-0.0533,-0.0548,-0.0583,-0.0566,-0.0605,-0.0579,-0.0665,-0.0697,-0.071,-0.0729,-0.0782,-0.0767,-0.0786,-0.0818,-0.0812,-0.0819,-0.0813,-0.0872,-0.0871,-0.0871,-0.0871,0,-0.0268,-0.0311,-0.0352,-0.0418,-0.0446,-0.0485,-0.054,-0.0536,-0.0599,-0.0577,-0.0599,-0.0629,-0.0644,-0.0702,-0.0789,-0.0776,-0.0807,-0.0823,-0.0831,-0.085,-0.0764,-0.0758,-0.0802,-0.08,-0.0798,-0.0796,-0.0795,0,-0.027,-0.0307,-0.0358,-0.0361,-0.0392,-0.0452,-0.0473,-0.0535,-0.0505,-0.0542,-0.0514,-0.0591,-0.0583,-0.0633,-0.0704,-0.0756,-0.0771,-0.0811,-0.0792,-0.0744,-0.0759,-0.0755,-0.0751,-0.0793,-0.0792,-0.0792,-0.0791,0,-0.026,-0.029,-0.0296,-0.031,-0.0333,-0.0339,-0.0369,-0.0361,-0.0397,-0.0454,-0.0409,-0.0452,-0.0501,-0.0552,-0.0646,-0.0663,-0.0782,-0.0794,-0.0798,-0.078,-0.0734,-0.0749,-0.0747,-0.0785,-0.0786,-0.0787,-0.0787,0,-0.0241,-0.0228,-0.0245,-0.025,-0.025,-0.0227,-0.0256,-0.0241,-0.0262,-0.0306,-0.0267,-0.0342,-0.0417,-0.0503,-0.0529,-0.0592,-0.0602,-0.0624,-0.0637,-0.0645,-0.0573,-0.049,-0.0476,0,0,0,0,0,-0.0225,-0.0197,-0.018,-0.018,-0.0164,-0.0178,-0.0173,-0.0198,-0.0242,-0.0177,-0.0231,-0.0237,-0.0321,-0.0375,-0.0418,-0.0504,-0.0627,-0.0558,-0.0661,-0.0752,-0.0759,-0.0694,0,0,0,0,0,0,-0.0206,-0.0183,-0.0165,-0.0124,-0.011,-0.0101,-0.0094,-0.0115,-0.0094,-0.0137,-0.0176,-0.024,-0.0326,-0.0292,-0.0416,-0.0442,-0.0509,-0.0622,-0.0623,-0.0748,-0.0755,-0.076,-0.0695,0,0,0,0,0]}]]